CAPE
2 3 2 1 1 0 0 0 0 0 0 0 0 0 0 0 0 0 0 0 0 0 0 0 0 0 0 0 0 0 0 0 0 0 0 0 0 0 0 0 0 0 0 0 0 0 0
1 1 1 3 2 1 0 0 0 0 0 0 0 0 0 0 0 0 0 0 0 0 0 0 0 0 0 0 0 0 0 0 0 0 0 0 0 0 0 0 0 0 0 0 0 0 0
1 0 1 0 0 0 0 0 3 3 1 0 0 0 0 0 0 0 0 0 0 0 0 0 0 0 0 0 0 0 0 0 0 0 0 0 0 0 0 0 0 0 0 0 0 0 0
4 2 2 0 0 1 10 3 0 0 0 0 0 0 0 0 0 0 0 0 0 0 0 0 0 0 0 0 0 0 0 0 0 0 0 0 0 0 0 0 0 0 0 0 0 0 0
22 23 19 12 8 7 0 0 0 0 0 0 0 0 0 0 0 0 0 0 0 0 0 0 0 0 0 0 0 0 0 0 0 0 0 0 0 0 0 0 0 0 0 0 0 0 0
2 1 1 0 0 0 0 0 0 0 0 0 0 0 0 0 0 0 0 0 0 0 0 0 0 0 0 0 0 0 0 0 0 0 0 0 0 0 0 0 0 0 0 0 0 0 0
0 0 1 4 0 0 0 0 0 0 0 0 0 0 0 0 0 0 0 0 0 0 0 0 0 0 0 0 0 0 0 0 0 0 0 0 0 0 4 0 0 0 0 0 0 0 0
2 3 0 4 1 2 3 0 0 0 0 0 0 0 0 0 0 0 0 0 0 0 0 0 0 0 0 0 0 0 0 0 0 0 0 0 0 0 14 3 0 1 5 1 2 0 0
0 8 3 6 0 0 0 0 0 0 0 0 0 0 0 0 0 0 0 0 0 0 0 0 0 0 0 0 0 0 0 0 0 0 0 0 0 0 1 18 10 11 19 19 16 3 0
0 0 2 6 0 0 7 1 0 0 0 0 0 0 0 0 0 0 0 0 0 0 0 0 0 0 0 0 0 0 0 0 0 0 0 0 0 1 1 20 28 29 24 24 7 19 35
0 0 0 3 5 0 0 0 0 0 0 0 0 0 0 0 0 0 0 0 0 0 8 0 0 0 0 0 0 0 0 0 0 0 0 0 6 10 19 8 14 19 83 44 47 33 25
5 17 20 19 0 0 0 0 0 0 0 0 0 0 0 0 0 0 0 0 0 29 0 0 0 0 0 0 0 0 0 0 1 0 0 5 0 26 32 25 31 57 45 55 95 102 75
23 23 25 16 0 0 0 0 0 0 0 0 0 0 0 0 0 0 0 0 0 3 0 0 0 0 0 0 0 0 0 1 10 8 2 0 13 16 0 0 3 21 59 73 33 123 60
13 17 10 1 0 0 0 0 0 0 0 0 0 0 0 0 0 0 0 0 1 0 0 0 0 0 0 0 0 0 0 0 9 0 1 3 0 17 0 0 0 20 118 101 47 84 1
3 0 0 0 0 0 0 0 0 0 0 0 0 0 7 0 0 0 11 0 1 0 0 0 0 0 0 0 0 0 0 1 3 11 0 5 0 0 0 0 2 47 89 47 96 58 42
7 6 0 0 0 0 0 0 0 0 0 0 0 17 0 0 0 1 8 0 0 0 0 0 0 0 0 0 0 0 0 0 0 0 1 0 11 0 0 0 0 36 53 48 135 25 27
27 8 12 3 6 7 6 5 0 0 0 0 0 13 0 0 0 4 2 0 0 0 0 0 0 0 0 0 0 0 0 1 0 0 5 13 36 1 0 0 2 1 74 24 57 66 43
16 8 0 0 1 0 0 6 0 0 0 0 0 39 0 0 22 10 7 0 0 0 0 0 0 0 0 0 0 0 0 2 0 0 1 31 40 13 5 0 1 26 3 6 19 2 2
10 0 0 0 0 0 0 0 0 0 0 0 5 9 0 0 5 21 0 0 0 0 0 0 0 0 0 0 0 0 1 0 0 1 11 7 11 39 2 0 4 6 22 63 31 27 9
17 6 1 0 0 0 0 0 0 0 0 0 4 15 5 3 10 2 0 0 0 0 0 0 0 0 0 0 1 0 4 1 0 1 39 8 37 51 67 33 43 11 10 10 23 30 13
30 30 29 24 10 9 0 1 0 0 0 0 15 2 8 23 1 0 0 0 0 0 0 0 0 0 0 0 0 0 2 0 0 18 8 17 25 33 1 9 4 7 10 8 11 26 17
20 23 20 11 27 13 8 1 9 0 0 0 0 6 1 0 0 1 0 0 0 0 0 0 0 0 0 1 1 13 3 1 1 0 0 5 1 23 0 7 10 13 19 41 15 8 4
9 12 10 18 24 16 25 11 17 3 0 8 6 1 5 2 0 6 5 0 0 0 0 0 0 0 0 1 0 0 0 0 0 0 2 9 35 43 11 10 19 11 8 5 2 19 24
4 2 1 9 34 24 36 37 40 32 1 0 2 6 38 8 0 1 0 0 0 0 0 0 0 2 0 0 0 0 0 0 0 0 1 3 15 54 35 16 36 32 2 61 1 39 14
0 0 0 0 2 37 36 35 40 42 14 6 5 23 50 9 4 0 0 0 0 0 0 0 0 0 0 0 1 0 0 0 0 0 0 15 58 33 28 24 8 9 18 15 25 16 4
8 4 0 0 0 4 50 50 54 49 26 3 77 33 52 22 1 0 1 2 6 13 15 11 1 0 0 20 12 0 1 0 0 0 0 13 30 50 70 24 15 29 3 28 11 72 1
11 2 0 0 0 11 59 54 55 54 33 4 64 29 45 22 0 0 4 13 8 12 18 6 3 3 7 20 23 12 8 8 1 3 4 1 54 49 65 33 20 55 11 0 33 5 13
24 7 5 7 11 35 26 18 51 62 60 30 36 39 34 34 1 0 1 5 17 22 36 20 5 28 14 13 17 14 16 9 6 7 10 29 57 88 74 23 11 1 8 56 147 98 96
23 8 0 6 14 3 3 8 18 47 59 45 52 63 72 40 8 1 0 0 0 2 38 36 2 13 33 28 31 42 28 32 9 23 3 41 66 90 49 32 38 18 62 71 51 150 139
CIN
-0 -0 -0 -0 -0 -0 -0 -0 -0 -0 -0 -0 -0 -0 -0 -0 -0 -0 -0 -0 -0 -0 -0 -0 -0 -0 -0 -0 -0 -0 -0 -0 -0 -0 -0 -0 -0 -0 -0 -0 -0 -0 -0 -0 -0 -0 -0
-0 -0 -0 -0 -0 -0 -0 -0 -0 -0 -0 -0 -0 -0 -0 -0 -0 -0 -0 -0 -0 -0 -0 -0 -0 -0 -0 -0 -0 -0 -0 -0 -0 -0 -0 -0 -0 -0 -0 -0 -0 -0 -0 -0 -0 -0 -0
-0 -0 -0 -0 -0 -0 -0 -0 -0 -0 -0 -0 -0 -0 -0 -0 -0 -0 -0 -0 -0 -0 -0 -0 -0 -0 -0 -0 -0 -0 -0 -0 -0 -0 -0 -0 -0 -0 -0 -0 -0 -0 -0 -0 -0 -0 -0
-0 -0 -0 -0 -0 -0 -0 -0 -0 -0 -0 -0 -0 -0 -0 -0 -0 -0 -0 -0 -0 -0 -0 -0 -0 -0 -0 -0 -0 -0 -0 -0 -0 -0 -0 -0 -0 -0 -0 -0 -0 -0 -0 -0 -0 -0 -0
-0 -0 -0 -0 -0 -0 -0 -0 -0 -0 -0 -0 -0 -0 -0 -0 -0 -0 -0 -0 -0 -0 -0 -0 -0 -0 -0 -0 -0 -0 -0 -0 -0 -0 -0 -0 -0 -0 -0 -0 -0 -0 -0 -0 -0 -0 -0
-0 -0 -0 -0 -0 -0 -0 -0 -0 -0 -0 -0 -0 -0 -0 -0 -0 -0 -0 -0 -0 -0 -0 -0 -0 -0 -0 -0 -0 -0 -0 -0 -0 -0 -0 -0 -0 -0 -0 -0 -0 -0 -0 -0 -0 -0 -0
-0 -0 -0 -0 -0 -0 -0 -0 -0 -0 -0 -0 -0 -0 -0 -0 -0 -0 -0 -0 -0 -0 -0 -0 -0 -0 -0 -0 -0 -0 -0 -0 -0 -0 -0 -0 -0 -0 -1 -0 -0 -0 -0 -0 -0 -0 -0
-0 -0 -0 -0 -0 -0 -0 -0 -0 -0 -0 -0 -0 -0 -0 -0 -0 -0 -0 -0 -0 -0 -0 -0 -0 -0 -0 -0 -0 -0 -0 -0 -0 -0 -0 -0 -0 -0 -1 -1 -0 -0 -0 -0 -0 -0 -0
-0 -0 -0 -0 -0 -0 -0 -0 -0 -0 -0 -0 -0 -0 -0 -0 -0 -0 -0 -0 -0 -0 -0 -0 -0 -0 -0 -0 -0 -0 -0 -0 -0 -0 -0 -0 -0 -0 -0 -0 -0 -0 -1 -0 -0 -2 -0
-0 -0 -0 -0 -0 -0 -0 -0 -0 -0 -0 -0 -0 -0 -0 -0 -0 -0 -0 -0 -0 -0 -0 -0 -0 -0 -0 -0 -0 -0 -0 -0 -0 -0 -0 -0 -0 -0 -0 -0 -0 -1 -1 -2 -1 -0 -0
-0 -0 -0 -0 -0 -0 -0 -0 -0 -0 -0 -0 -0 -0 -0 -0 -0 -0 -0 -0 -0 -0 -0 -0 -0 -0 -0 -0 -0 -0 -0 -0 -0 -0 -0 -0 -0 -1 -0 -0 -3 -0 -2 -8 -1 -0 -0
-2 -1 -1 -0 -0 -0 -0 -0 -0 -0 -0 -0 -0 -0 -0 -0 -0 -0 -0 -0 -0 -0 -0 -0 -0 -0 -0 -0 -0 -0 -0 -0 -0 -0 -0 -1 -0 -8 -2 -4 -2 -2 -14 -41 -21 -1 -0
-2 -2 -0 -0 -0 -0 -0 -0 -0 -0 -0 -0 -0 -0 -0 -0 -0 -0 -0 -0 -0 -0 -0 -0 -0 -0 -0 -0 -0 -0 -0 -0 -0 -0 -0 -0 -0 -12 -0 -0 -1 -0 -19 -0 -1 -0 -0
-4 -0 -0 -0 -0 -0 -0 -0 -0 -0 -0 -0 -0 -0 -0 -0 -0 -0 -0 -0 -0 -0 -0 -0 -0 -0 -0 -0 -0 -0 -0 -0 -5 -0 -0 -0 -0 -1 -0 -0 -0 -3 -0 -0 -0 -0 -0
-3 -0 -0 -0 -0 -0 -0 -0 -0 -0 -0 -0 -0 -0 -0 -0 -0 -0 -1 -0 -0 -0 -0 -0 -0 -0 -0 -0 -0 -0 -0 -0 -0 -2 -0 -0 -0 -0 -0 -0 -6 -6 -0 -1 -0 -0 -0
-0 -1 -0 -0 -0 -0 -0 -0 -0 -0 -0 -0 -0 -0 -0 -0 -0 -1 -0 -0 -0 -0 -0 -0 -0 -0 -0 -0 -0 -0 -0 -0 -0 -0 -0 -0 -0 -0 -0 -0 -0 -6 -1 -7 -1 -1 -0
-0 -3 -1 -5 -4 -4 -3 -2 -0 -0 -0 -0 -0 -0 -0 -0 -0 -0 -0 -0 -0 -0 -0 -0 -0 -0 -0 -0 -0 -0 -0 -0 -0 -0 -0 -0 -1 -0 -0 -0 -0 -0 -0 -3 -0 -0 -0
-0 -2 -0 -0 -8 -0 -0 -5 -0 -0 -0 -0 -0 -0 -0 -0 -0 -0 -0 -0 -0 -0 -0 -0 -0 -0 -0 -0 -0 -0 -0 -0 -0 -0 -0 -7 -1 -0 -0 -0 -0 -1 -14 -0 -2 -0 -0
-4 -0 -0 -0 -0 -0 -0 -0 -0 -0 -0 -0 -0 -0 -0 -0 -0 -0 -0 -0 -0 -0 -0 -0 -0 -0 -0 -0 -0 -0 -1 -0 -0 -3 -0 -2 -1 -0 -0 -0 -9 -0 -1 -7 -1 -0 -0
-3 -7 -3 -1 -0 -0 -0 -0 -0 -0 -0 -0 -3 -0 -1 -0 -4 -0 -0 -0 -0 -0 -0 -0 -0 -0 -0 -0 -0 -0 -0 -0 -0 -1 -2 -1 -0 -0 -0 -0 -0 -2 -10 -15 -16 -0 -0
-2 -2 -3 -4 -5 -7 -0 -1 -0 -0 -0 -0 -0 -0 -0 -0 -0 -0 -0 -0 -0 -0 -0 -0 -0 -0 -0 -0 -0 -0 -0 -0 -0 -1 -0 -1 -1 -2 -4 -0 -1 -0 -4 -0 -9 -10 -6
-4 -5 -7 -9 -5 -9 -11 -2 -9 -0 -0 -0 -0 -0 -0 -2 -0 -0 -0 -0 -0 -0 -0 -0 -0 -0 -0 -0 -0 -1 -0 -0 -0 -0 -0 -1 -4 -1 -3 -0 -1 -1 -0 -1 -2 -0 -1
-4 -4 -5 -7 -6 -9 -4 -10 -7 -10 -0 -0 -0 -0 -0 -0 -0 -0 -0 -0 -0 -0 -0 -0 -0 -0 -0 -0 -0 -0 -0 -0 -0 -0 -0 -0 -0 -0 -0 -0 -1 -0 -4 -0 -1 -2 -0
-2 -2 -5 -11 -5 -5 -3 -4 -3 -8 -3 -0 -0 -0 -1 -0 -0 -0 -0 -0 -0 -0 -0 -0 -0 -0 -0 -0 -0 -0 -0 -0 -0 -0 -0 -0 -0 -0 -0 -0 -1 -1 -0 -1 -1 -4 -4
-0 -0 -0 -0 -24 -3 -4 -5 -7 -6 -13 -1 -5 -0 -0 -0 -0 -0 -0 -0 -0 -0 -0 -0 -0 -0 -0 -0 -0 -0 -0 -0 -0 -0 -0 -0 -0 -0 -0 -0 -0 -8 -14 -28 -24 -8 -12
-0 -0 -0 -0 -0 -18 -3 -4 -4 -3 -8 -13 -0 -2 -0 -0 -0 -0 -0 -0 -0 -0 -0 -0 -2 -0 -0 -0 -0 -0 -0 -0 -0 -0 -0 -0 -1 -0 -0 -0 -0 -12 -3 -28 -1 -2 -20
-0 -0 -0 -0 -0 -13 -1 -3 -4 -2 -5 -7 -0 -0 -0 -0 -0 -0 -0 -0 -0 -0 -0 -0 -0 -0 -0 -0 -0 -0 -0 -0 -0 -3 -7 -11 -0 -0 -0 -1 -3 -10 -11 -0 -4 -0 -33
-0 -1 -1 -1 -1 -2 -5 -8 -5 -3 -2 -1 -0 -0 -0 -0 -0 -0 -0 -0 -0 -0 -0 -0 -1 -0 -0 -0 -0 -0 -0 -0 -0 -0 -0 -0 -0 -0 -1 -0 -1 -11 -11 -2 -0 -0 -3
-1 -1 -0 -2 -0 -6 -12 -13 -10 -6 -2 -3 -0 -0 -0 -0 -0 -0 -0 -0 -0 -0 -0 -0 -1 -0 -0 -0 -0 -0 -0 -0 -0 -0 -0 -0 -0 -0 -5 -0 -8 -13 -1 -0 -2 -0 -2
Wind_Speed
11 9 8 7 7 7 6 6 7 8 9 9 10 11 12 14 15 16 17 17 17 17 17 15 16 13 8 6 7 7 8 6 9 13 10 11 12 12 11 16 19 19 18 19 17 19 21
11 9 7 5 5 5 5 5 6 8 8 9 10 11 12 13 15 17 17 16 17 18 16 16 15 15 8 6 7 10 9 11 13 13 12 9 9 13 12 15 15 17 22 22 22 21 19
11 8 5 4 4 4 3 3 4 7 8 9 10 12 13 14 15 16 17 17 16 14 12 13 13 9 18 7 5 10 10 5 8 9 9 10 12 10 15 16 13 16 19 19 21 20 22
10 8 6 4 2 1 4 5 5 7 8 8 10 12 13 15 16 16 16 16 11 7 10 11 12 8 6 2 8 9 11 9 11 9 8 10 9 12 13 13 19 21 21 20 22 22 24
10 9 6 3 4 4 4 4 6 8 9 10 11 12 13 15 15 15 13 12 5 5 8 10 7 5 6 3 4 8 8 11 12 8 7 7 6 10 13 13 15 16 18 24 26 21 22
9 7 5 3 2 2 3 5 6 8 9 11 11 12 14 15 15 15 14 8 5 5 7 8 7 3 7 6 5 7 8 7 10 11 12 10 9 11 12 13 13 18 19 21 21 21 25
9 7 5 4 3 3 3 2 4 6 9 10 12 13 15 16 16 15 9 4 5 4 10 12 8 10 6 6 6 1 8 11 11 13 11 10 11 12 16 19 19 19 21 22 22 23 23
9 8 7 6 3 1 1 1 2 4 6 8 11 13 14 16 17 18 8 2 6 6 5 4 5 7 1 4 5 8 12 10 13 12 12 11 12 15 12 14 15 18 20 21 21 22 21
9 10 8 7 5 0 2 1 1 5 6 8 11 12 13 15 15 7 10 7 5 4 4 3 3 4 2 6 5 8 10 11 11 12 14 12 15 18 18 13 16 18 19 19 22 23 25
10 10 8 6 4 2 2 3 3 6 8 9 11 14 14 15 6 1 6 7 5 3 2 5 4 5 3 10 3 6 6 8 11 13 15 11 15 19 19 17 18 18 18 18 20 19 17
11 10 8 6 5 2 2 3 4 6 9 11 12 14 14 11 7 4 5 5 3 4 1 2 4 3 8 5 8 9 8 6 11 15 13 14 18 17 17 19 18 14 21 21 24 20 22
11 10 10 8 6 3 1 2 4 6 8 9 13 16 11 5 3 4 5 5 3 4 3 3 2 3 8 3 7 6 9 7 8 13 15 14 18 13 18 15 20 14 13 21 23 17 16
9 7 10 11 7 4 3 1 4 6 10 11 13 14 12 5 3 4 5 5 1 3 2 5 3 5 8 6 7 9 10 10 7 9 14 20 6 5 12 16 14 17 5 7 6 8 10
9 9 9 8 5 5 3 2 3 7 9 10 12 11 2 6 5 6 6 1 1 3 4 3 3 8 3 4 5 8 8 8 10 10 11 10 10 4 16 17 21 18 14 4 8 7 16
10 10 9 7 5 5 3 2 4 6 9 11 13 5 2 4 6 6 5 3 5 3 4 4 9 6 1 6 5 5 8 5 5 6 5 10 10 27 20 17 13 14 12 16 12 17 16
12 11 10 8 7 5 4 4 6 7 9 10 6 4 4 4 6 7 3 1 5 3 1 2 2 1 5 8 7 8 7 1 2 3 4 9 21 15 16 22 17 9 12 7 3 7 7
10 9 9 7 8 7 5 6 7 8 11 11 5 4 4 4 6 5 2 2 4 5 1 2 2 4 5 8 6 9 7 4 3 4 7 13 7 13 18 16 18 16 12 5 4 7 5
9 9 8 6 6 4 4 5 6 7 12 7 4 3 3 3 1 1 1 2 5 8 4 1 2 4 4 6 8 9 10 8 5 7 11 5 4 11 22 22 21 8 9 9 5 9 9
10 8 8 7 6 5 4 3 5 6 7 7 2 3 3 4 2 2 4 4 3 4 4 4 3 2 3 6 5 6 9 7 9 6 7 8 4 14 14 13 10 6 10 4 6 9 12
10 9 8 7 6 6 4 3 5 4 7 5 4 2 4 5 6 6 6 5 5 2 4 3 4 4 6 8 9 7 13 13 10 7 6 9 14 13 14 15 17 20 18 15 10 7 14
10 9 9 9 7 8 5 6 6 3 7 5 3 2 4 3 3 6 3 4 6 5 6 3 4 8 7 6 10 13 13 14 17 16 10 8 7 10 15 18 21 22 21 21 17 16 16
9 9 8 7 7 6 7 6 7 4 5 3 3 2 2 6 3 8 6 3 7 6 1 5 9 8 8 9 10 14 16 14 12 11 9 3 7 12 21 20 21 23 23 24 23 24 22
9 9 9 7 8 7 9 8 6 5 3 1 3 2 2 4 4 4 6 6 5 5 2 6 9 8 8 11 13 13 13 14 15 16 15 14 11 11 18 17 19 13 17 15 17 16 19
9 9 8 5 8 7 9 8 8 8 6 3 4 5 3 3 6 7 6 5 6 5 8 6 5 10 8 13 14 15 15 16 17 16 14 15 14 10 13 17 9 17 8 14 7 5 9
9 9 7 5 2 7 9 9 8 9 7 5 2 1 1 3 6 8 7 6 6 8 9 10 10 5 9 10 7 7 3 2 6 13 13 16 12 4 5 10 17 12 11 4 3 7 12
11 11 7 5 5 4 9 11 9 9 8 5 2 2 1 2 3 9 6 7 6 7 8 8 6 2 4 4 3 4 4 2 3 4 9 11 10 6 10 12 8 4 9 22 13 3 15
11 11 9 8 8 7 11 11 10 9 11 6 1 2 2 1 6 8 4 5 4 4 2 3 3 1 5 1 4 6 9 11 5 5 5 4 4 9 10 9 9 11 16 18 11 3 10
12 10 8 7 6 11 10 8 8 10 13 8 2 6 3 3 7 11 12 10 8 3 4 2 3 4 2 4 4 4 5 6 8 12 13 9 8 8 6 6 8 11 17 11 11 11 8
12 11 7 8 8 9 8 7 7 7 13 12 2 4 4 3 4 5 11 13 13 12 6 5 5 5 5 4 4 4 6 5 11 11 13 11 9 8 6 8 18 17 16 12 12 14 7
Wind_Direction
120 119 129 128 122 113 99 81 67 58 41 27 17 18 9 1 351 346 339 338 332 325 324 329 325 320 308 122 46 20 285 281 294 341 349 349 323 350 308 325 321 288 280 287 288 289 287
129 131 139 136 123 107 90 67 47 41 26 11 10 3 2 355 349 342 337 330 327 329 331 332 328 328 244 99 321 357 356 352 2 356 343 5 346 333 289 282 278 294 302 294 294 289 289
135 144 152 149 133 112 77 54 34 42 22 7 2 354 355 351 346 338 331 328 328 327 325 326 326 307 51 59 325 353 358 341 345 345 333 341 334 316 325 303 284 299 291 287 272 268 267
150 157 165 181 182 119 90 74 35 36 13 5 360 353 353 350 343 334 331 330 325 320 318 317 316 294 72 1 334 14 360 351 357 339 327 316 300 299 274 275 282 278 272 274 272 265 253
159 153 147 128 120 110 85 52 41 40 13 357 359 353 350 348 336 326 330 326 296 282 287 289 278 282 82 152 7 2 20 345 322 320 294 289 282 270 280 271 275 260 264 268 275 269 268
147 151 158 198 183 152 86 61 39 19 5 356 354 349 347 344 329 324 329 306 328 271 238 249 255 187 59 14 10 291 13 324 303 298 296 229 233 287 265 254 275 309 309 306 304 312 317
159 154 155 180 178 140 114 81 38 33 6 358 348 345 345 340 325 323 325 235 207 171 43 44 49 77 41 5 230 17 343 310 353 317 346 329 293 286 332 335 325 317 306 292 290 294 293
160 164 162 175 167 149 173 133 46 31 9 353 344 341 341 335 327 321 279 240 32 356 105 81 134 112 45 297 327 35 2 356 331 332 325 315 312 313 309 307 303 292 285 283 286 285 275
169 165 165 157 144 218 271 279 358 359 357 350 340 336 336 327 325 306 59 48 349 320 243 90 32 51 2 323 354 345 360 345 340 331 327 309 299 299 288 298 289 285 290 294 293 297 293
168 172 180 183 165 46 57 60 7 356 346 347 337 329 326 323 299 322 57 5 22 331 136 107 175 101 341 317 210 338 13 360 329 323 322 304 315 313 310 294 286 296 303 295 293 293 287
175 183 187 196 170 120 56 21 354 345 346 339 328 319 313 318 315 57 27 349 354 252 160 157 98 7 321 2 310 95 8 328 315 321 299 295 297 291 282 290 300 305 324 320 295 286 286
194 203 205 202 175 174 132 349 331 325 336 338 326 316 311 245 80 24 347 312 259 214 103 162 330 354 325 21 344 335 342 317 340 343 308 313 315 341 308 328 308 299 346 329 291 277 269
167 177 177 170 180 214 183 258 318 327 335 330 327 312 304 6 21 349 290 230 92 54 191 135 3 337 316 26 327 0 344 342 11 338 334 321 329 53 22 325 304 303 234 292 266 267 277
170 174 171 174 175 160 195 247 311 327 332 322 318 311 10 32 8 322 268 77 111 157 239 74 286 296 259 6 12 329 326 339 47 4 326 340 321 18 350 305 305 298 299 306 309 332 304
190 188 189 186 179 189 201 247 293 320 324 322 315 237 172 28 330 304 264 83 154 199 37 338 285 276 219 143 223 326 327 27 35 70 12 309 301 321 316 315 334 307 308 324 293 284 274
190 183 180 175 177 198 220 261 288 317 323 331 289 214 81 340 317 283 68 167 128 52 99 230 296 37 319 340 342 328 339 347 299 32 337 303 302 311 314 327 308 319 313 328 318 293 298
180 180 174 173 195 219 240 242 275 303 316 331 266 220 84 351 286 42 136 178 125 121 342 303 356 291 299 318 299 308 306 9 129 301 294 319 309 303 317 320 312 314 330 341 280 261 298
191 183 173 183 181 197 245 223 255 299 323 288 272 67 71 323 82 293 236 129 332 147 153 181 274 271 287 328 305 311 307 331 101 293 313 76 230 297 310 304 301 356 63 20 340 346 305
175 171 168 167 166 176 179 189 232 296 345 315 251 117 139 271 124 207 152 146 260 169 208 181 238 225 280 295 309 299 310 319 298 334 311 347 298 311 303 318 58 5 319 206 235 274 277
187 177 171 174 174 168 158 200 224 289 332 306 68 21 355 353 293 206 189 202 187 248 294 251 273 297 276 267 281 280 297 307 322 305 280 246 267 274 286 292 304 294 288 283 259 265 283
192 182 185 183 187 180 170 179 205 264 320 294 40 252 167 137 287 242 193 232 214 181 210 245 266 236 263 292 308 295 298 310 307 297 295 282 260 273 277 282 283 285 285 282 270 251 243
179 183 183 173 179 177 171 176 193 228 313 263 134 154 278 301 132 223 137 276 238 230 230 246 225 281 307 300 287 294 297 303 307 313 281 253 269 286 285 285 283 283 281 277 274 271 269
167 184 187 179 180 186 175 177 193 207 244 324 332 65 309 308 244 233 230 230 246 252 243 261 293 300 294 302 322 316 299 287 275 280 280 282 275 284 280 297 305 291 276 278 281 290 268
169 164 156 146 193 186 175 177 189 208 224 325 327 330 68 239 235 221 229 258 230 232 244 272 254 286 333 349 314 288 277 269 260 252 242 253 264 273 283 287 290 317 336 358 326 35 1
195 180 169 160 133 191 184 178 189 203 217 279 311 24 156 240 275 254 241 224 249 258 245 249 260 10 1 321 319 318 233 308 269 252 241 229 244 270 272 303 304 339 358 335 299 335 344
198 190 190 194 214 251 182 179 186 195 214 259 275 148 146 251 226 272 286 249 243 255 266 256 93 82 9 353 293 272 281 116 250 292 270 241 225 242 287 294 291 168 300 284 307 295 324
201 191 201 218 211 240 178 177 184 192 203 225 240 228 110 203 282 296 276 270 280 284 359 323 287 272 14 218 252 261 260 261 253 205 231 247 246 258 265 269 270 19 340 330 346 301 270
191 186 193 198 196 156 155 165 190 195 197 208 200 197 198 205 271 277 281 280 262 252 189 125 341 189 143 229 261 272 269 277 287 270 277 257 254 256 255 243 257 6 317 343 326 326 13
177 184 192 187 162 152 164 177 180 180 194 195 248 184 219 236 274 332 289 292 288 283 274 208 224 167 192 240 258 290 276 290 283 278 283 276 275 276 243 283 315 311 288 304 337 331 327